FW4369 Weather Reports


time (UTC)temp
F
wind
direction
speed
knots
gust
knots
rain 1hr
in
rain 24hr
in
rain mn
in
humidity
%
barometer
mb
20260504235007 74 63 8.7 17.4 0.00 0.00 0.00 31 1002.9
20260504234506 74 67 8.7 24.3 0.00 0.00 0.00 32 1002.8
20260504234007 75 34 11.3 24.3 0.00 0.00 0.00 31 1002.6
20260504233506 75 18 8.7 17.4 0.00 0.00 0.00 32 1002.5
20260504233006 76 11 11.3 17.4 0.00 0.00 0.00 32 1002.4
20260504232506 77 20 7.8 15.6 0.00 0.00 0.00 32 1002.2
20260504232007 77 24 11.3 15.6 0.00 0.00 0.00 32 1002.2
20260504231006 77 101 3.5 18.2 0.00 0.00 0.00 32 1002.1
20260504230506 78 45 11.3 18.2 0.00 0.00 0.00 31 1002.0
20260504225505 78 69 7.8 17.4 0.00 0.00 0.00 31 1002.1
20260504225006 79 63 9.6 14.8 0.00 0.00 0.00 30 1002.1
20260504224505 79 34 8.7 13.9 0.00 0.00 0.00 30 1002.0
20260504224006 79 58 12.2 13.9 0.00 0.00 0.00 30 1001.9
20260504223507 80 70 7.0 17.4 0.00 0.00 0.00 29 1001.6
20260504222007 82 78 3.5 11.3 0.00 0.00 0.00 27 1001.8
20260504220506 83 58 0.9 7.0 0.00 0.00 0.00 18 1001.3
20260504220009 83 15 0.9 7.0 0.00 0.00 0.00 20 1001.5
20260504215507 83 102 0.9 5.2 0.00 0.00 0.00 17 1001.5
20260504215007 84 60 4.3 5.2 0.00 0.00 0.00 18 1001.6
20260504214506 84 65 3.5 7.8 0.00 0.00 0.00 19 1001.6
20260504214007 84 49 0.9 7.8 0.00 0.00 0.00 19 1001.7
20260504213507 85 68 2.6 7.0 0.00 0.00 0.00 18 1001.7
20260504212507 85 295 0.0 7.0 0.00 0.00 0.00 18 1001.6
20260504212007 85 55 2.6 7.0 0.00 0.00 0.00 17 1001.5
20260504211506 86 166 0.9 7.0 0.00 0.00 0.00 15 1001.6
20260504211006 87 58 3.5 7.0 0.00 0.00 0.00 15 1001.7
20260504210507 89 343 4.3 8.7 0.00 0.00 0.00 17 1001.7
20260504210008 87 55 2.6 8.7 0.00 0.00 0.00 17 1001.6
20260504205505 86 130 7.0 7.0 0.00 0.00 0.00 19 1001.6
20260504205006 86 222 0.9 6.1 0.00 0.00 0.00 16 1001.8
20260504204005 85 82 2.6 10.4 0.00 0.00 0.00 19 1002.0
20260504203506 87 89 3.5 10.4 0.00 0.00 0.00 17 1002.1
20260504202505 86 288 1.7 6.1 0.00 0.00 0.00 15 1002.1
20260504202005 88 80 3.5 7.8 0.00 0.00 0.00 16 1002.0
20260504201505 86 31 1.7 7.8 0.00 0.00 0.00 15 1002.2
20260504201005 86 307 3.5 8.7 0.00 0.00 0.00 16 1002.3
20260504200505 87 49 1.7 8.7 0.00 0.00 0.00 18 1002.3
20260504195505 85 305 7.0 8.7 0.00 0.00 0.00 17 1002.5
20260504195006 86 120 1.7 8.7 0.00 0.00 0.00 18 1002.6
20260504194505 87 143 7.0 7.0 0.00 0.00 0.00 18 1002.6
20260504193505 86 78 4.3 7.8 0.00 0.00 0.00 19 1002.8
20260504193005 85 220 3.5 7.8 0.00 0.00 0.00 19 1002.8
20260504192505 87 5 5.2 8.7 0.00 0.00 0.00 17 1002.8
20260504191006 85 51 2.6 7.0 0.00 0.00 0.00 19 1002.8
20260504190505 86 29 2.6 7.0 0.00 0.00 0.00 17 1002.9
20260504190008 86 81 0.9 5.2 0.00 0.00 0.00 20 1002.9
20260504185505 84 173 0.0 6.1 0.00 0.00 0.00 17 1002.9
20260504185006 86 108 5.2 7.8 0.00 0.00 0.00 17 1003.0
20260504184505 86 40 0.9 7.8 0.00 0.00 0.00 15 1003.1
20260504184005 85 27 1.7 7.8 0.00 0.00 0.00 17 1003.1
20260504182506 86 22 2.6 10.4 0.00 0.00 0.00 17 1003.1
20260504182005 86 21 7.0 10.4 0.00 0.00 0.00 16 1003.2
20260504181005 85 10 9.6 11.3 0.00 0.00 0.00 18 1003.2
20260504180505 84 69 0.9 9.6 0.00 0.00 0.00 22 1003.3
20260504180008 84 31 2.6 7.8 0.00 0.00 0.00 18 1003.2
20260504175005 83 253 3.5 7.8 0.00 0.00 0.00 19 1003.2
20260504174505 84 318 3.5 7.0 0.00 0.00 0.00 20 1003.3
20260504174006 84 18 2.6 8.7 0.00 0.00 0.00 20 1003.4
20260504173505 84 24 3.5 8.7 0.00 0.00 0.00 21 1003.5
20260504172505 83 79 3.5 8.7 0.00 0.00 0.00 20 1003.5
20260504172005 81 360 1.7 9.6 0.00 0.00 0.00 19 1003.5
20260504171505 83 350 3.5 12.2 0.00 0.00 0.00 21 1003.6
20260504171005 82 54 3.5 11.3 0.00 0.00 0.00 23 1003.6
20260504170505 82 28 3.5 11.3 0.00 0.00 0.00 22 1003.5
20260504141006 65 5 4.3 10.4 0.00 0.00 0.00 47 1004.9
20260504140506 63 355 7.8 12.2 0.00 0.00 0.00 47 1004.9
20260504130505 54 10 6.1 10.4 0.00 0.00 0.00 61 1004.5
20260504100505 41 5 0.9 2.6 0.00 0.00 0.00 80 1003.6
20260504082005 47 49 0.0 0.0 0.00 0.00 0.00 69 1004.3
20260504081506 49 49 0.0 0.9 0.00 0.00 0.00 63 1004.4
20260504080505 50 49 0.0 1.7 0.00 0.00 0.00 61 1004.4
20260504050506 58 49 1.7 4.3 0.00 0.00 0.00 50 1006.5
20260504045507 59 60 1.7 5.2 0.00 0.00 0.00 49 1006.6
20260504045006 59 37 2.6 5.2 0.00 0.00 0.00 50 1006.7
20260504044506 59 61 2.6 5.2 0.00 0.00 0.00 48 1006.6
20260504044006 59 74 1.7 5.2 0.00 0.00 0.00 48 1006.6
20260504043506 59 47 2.6 5.2 0.00 0.00 0.00 49 1006.7
20260504043006 59 58 1.7 5.2 0.00 0.00 0.00 48 1006.9
20260504042506 60 38 0.9 5.2 0.00 0.00 0.00 48 1006.8
20260504041506 60 68 3.5 6.1 0.00 0.00 0.00 47 1006.8
20260504041006 60 70 2.6 5.2 0.00 0.00 0.00 48 1006.9
20260504040506 59 85 3.5 5.2 0.00 0.00 0.00 50 1007.0
20260504040009 59 65 0.9 2.6 0.00 0.00 0.00 49 1007.0
20260504035506 59 65 0.9 3.5 0.00 0.00 0.00 50 1007.1
20260504035007 59 50 1.7 3.5 0.00 0.00 0.00 50 1007.2
20260504034006 60 67 1.7 3.5 0.00 0.00 0.00 49 1007.2
20260504033506 60 68 0.9 2.6 0.00 0.00 0.00 49 1007.3
20260504033006 60 68 0.9 1.7 0.00 0.00 0.00 50 1007.3
20260504032506 60 68 1.7 2.6 0.00 0.00 0.00 49 1007.3
20260504032006 59 68 1.7 2.6 0.00 0.00 0.00 49 1007.4
20260504031506 60 68 0.9 2.6 0.00 0.00 0.00 48 1007.4
20260504031007 60 68 1.7 2.6 0.00 0.00 0.00 48 1007.4
20260504030506 60 69 1.7 2.6 0.00 0.00 0.00 49 1007.4
20260504030009 60 61 1.7 2.6 0.00 0.00 0.00 47 1007.5
20260504025507 61 63 1.7 2.6 0.00 0.00 0.00 46 1007.5
20260504025006 61 78 0.9 3.5 0.00 0.00 0.00 46 1007.4
20260504024506 62 34 0.9 3.5 0.00 0.00 0.00 46 1007.4
20260504023506 64 93 0.9 5.2 0.00 0.00 0.00 43 1007.2
20260504023006 63 111 2.6 5.2 0.00 0.00 0.00 44 1007.1
20260504022506 63 110 1.7 2.6 0.00 0.00 0.00 45 1007.2
20260504022006 63 100 0.0 2.6 0.00 0.00 0.00 44 1007.4
20260504021506 63 87 0.9 2.6 0.00 0.00 0.00 45 1007.4
20260504021006 63 61 0.0 1.7 0.00 0.00 0.00 46 1007.4
20260504020506 64 61 1.7 2.6 0.00 0.00 0.00 45 1007.4
20260504020009 65 61 1.7 2.6 0.00 0.00 0.00 43 1007.4
20260504015006 64 61 0.9 2.6 0.00 0.00 0.00 44 1007.2
20260504014506 64 61 0.9 1.7 0.00 0.00 0.00 46 1007.3
20260504014006 65 61 0.0 1.7 0.00 0.00 0.00 44 1007.2
20260504013007 66 61 0.0 2.6 0.00 0.00 0.00 40 1007.1
20260504012506 68 63 0.9 2.6 0.00 0.00 0.00 39 1007.1
20260504012006 69 63 1.7 2.6 0.00 0.00 0.00 36 1007.2
20260504011006 70 78 1.7 2.6 0.00 0.00 0.00 37 1007.2
20260504010506 71 87 0.9 2.6 0.00 0.00 0.00 35 1007.1
20260504010009 72 87 0.0 2.6 0.00 0.00 0.00 35 1007.2
20260504005506 73 87 1.7 7.0 0.00 0.00 0.00 32 1007.3
20260504005006 74 104 1.7 7.0 0.00 0.00 0.00 30 1007.3
20260504004506 75 67 2.6 5.2 0.00 0.00 0.00 30 1007.3
20260504003506 76 78 0.9 6.1 0.00 0.00 0.00 27 1007.3
20260504003006 76 92 0.9 6.1 0.00 0.00 0.00 26 1007.3
20260504002506 77 114 2.6 5.2 0.00 0.00 0.00 26 1007.3
20260504002006 77 106 2.6 7.0 0.00 0.00 0.00 26 1007.3
20260504001506 77 74 1.7 7.0 0.00 0.00 0.00 27 1007.3
20260504001006 77 82 7.0 7.8 0.00 0.00 0.00 26 1007.2
20260504000506 77 100 1.7 8.7 0.00 0.00 0.00 25 1007.2
20260504000009 78 82 6.1 8.7 0.00 0.00 0.00 25 1007.3
20260503235506 77 59 2.6 7.8 0.00 0.00 0.00 26 1007.2